Weather History for KBHK - October, 2010

Change the Weather History Date:

Thursday, October 14, 2010

  Actual Average Record
Temperature  
Mean Temperature 52 °F -  
Max Temperature 73 °F 80 °F 73 °F (2010)
Min Temperature 30 °F 30 °F 19 °F (2006)
Degree Days  
Heating Degree Days 14    
Growing Degree Days 2 (Base 50)    
Moisture  
Dew Point 27 °F    
Average Humidity 46    
Maximum Humidity 79    
Minimum Humidity 11    
Precipitation  
Precipitation 0.00 in - - ()
Sea Level Pressure  
Sea Level Pressure 30.12 in    
Wind  
Wind Speed 2 mph (South)    
Max Wind Speed 10 mph    
Max Gust Speed -    
Visibility 10 miles    
Events      
Averages and records for this station are not official NWS values.
T = Trace of Precipitation, MM = Missing Value Source: NWS Daily Summary

Daily Weather History Graph

Daily Weather History Graph

Search for Another Location

Airport or City:

Trip Planner

Search our weather history database for the weather conditions in past years. The results will help you decide how hot, cold, wet, or windy it might be!

Date:

Astronomy

Oct. 14, 2010 Rise Set
Actual Time 7:12 AM MDT 6:12 PM MDT
Civil Twilight 6:42 AM MDT 6:42 PM MDT
Nautical Twilight 6:07 AM MDT 7:17 PM MDT
Astronomical Twilight 5:32 AM MDT 7:52 PM MDT
Moon 2:27 PM MDT (10/14) 11:44 PM MDT (10/14)
Length of Visible Light 11h 59m
Length of Day
10h 59m
Waxing Crescent, 49% of the Moon is Illuminated
Oct 14
Waxing Crescent
Oct 14
First Quarter
Oct 22
Full
Oct 30
Last Quarter
Nov 5
New

Hourly Weather History & Observations

Time (MDT) Temp. Dew Point Humidity Pressure Visibility Wind Dir Wind Speed Gust Speed Precip Events Conditions
12:53 AM 39.9 °F 28.0 °F 63% 30.18 in 10.0 mi Calm Calm - N/A   Clear
1:53 AM 37.0 °F 28.0 °F 70% 30.18 in 10.0 mi Calm Calm - N/A   Clear
2:53 AM 34.0 °F 26.1 °F 73% 30.18 in 10.0 mi Calm Calm - N/A   Clear
3:53 AM 37.0 °F 26.1 °F 65% 30.17 in 10.0 mi Calm Calm - N/A   Clear
5:53 AM 36.0 °F 27.0 °F 70% 30.20 in 10.0 mi Calm Calm - N/A   Clear
6:53 AM 30.0 °F 24.1 °F 79% 30.22 in 10.0 mi Calm Calm - N/A   Clear
7:53 AM 32.0 °F 26.1 °F 79% 30.22 in 10.0 mi Calm Calm - N/A   Clear
8:53 AM 42.1 °F 34.0 °F 73% 30.21 in 10.0 mi Calm Calm - N/A   Clear
9:53 AM 55.9 °F 34.0 °F 44% 30.19 in 10.0 mi Variable 4.6 mph - N/A   Clear
10:53 AM 61.0 °F 30.9 °F 32% 30.18 in 10.0 mi Variable 3.5 mph - N/A   Clear
11:53 AM 66.9 °F 28.9 °F 24% 30.15 in 10.0 mi SSW 5.8 mph - N/A   Clear
12:53 PM 69.1 °F 30.0 °F 23% 30.13 in 10.0 mi WSW 6.9 mph - N/A   Clear
1:53 PM 71.1 °F 25.0 °F 18% 30.11 in 10.0 mi WSW 9.2 mph - N/A   Clear
2:53 PM 73.0 °F 18.0 °F 12% 30.09 in 10.0 mi Calm Calm - N/A   Clear
3:53 PM 73.0 °F 15.1 °F 11% 30.08 in 10.0 mi Calm Calm - N/A   Clear
4:53 PM 72.0 °F 21.9 °F 15% 30.07 in 10.0 mi SSW 5.8 mph - N/A   Clear
5:53 PM 62.1 °F 32.0 °F 32% 30.06 in 10.0 mi South 5.8 mph - N/A   Clear
6:53 PM 54.0 °F 30.9 °F 41% 30.08 in 10.0 mi South 5.8 mph - N/A   Clear
7:53 PM 50.0 °F 30.9 °F 48% 30.08 in 10.0 mi South 9.2 mph - N/A   Clear
8:53 PM 51.1 °F 28.9 °F 43% 30.05 in 10.0 mi SSE 5.8 mph - N/A   Clear
9:53 PM 46.9 °F 28.9 °F 50% 30.02 in 10.0 mi SE 9.2 mph - N/A   Clear
10:53 PM 55.0 °F 27.0 °F 34% 29.98 in 10.0 mi SE 10.4 mph - N/A   Clear
11:53 PM 48.0 °F 28.9 °F 48% 29.96 in 10.0 mi ESE 10.4 mph - N/A   Clear